国际通讯卫星 2-F1星 (INTELSAT 2-F1)

导读

INTELSAT 2-F1是国际通信卫星组织(ITSO)于1966年10月26日08:00发射的通信卫星,隶属于国际通信卫星星座,运行在大椭圆轨道,近地点约3236公里、远地点约37149公里,轨道倾角17.26度。作为第二代国际通信卫星的首星,它承担早期跨洋通信中继任务,是全球卫星通信网络发展初期的重要节点,至今仍保持在轨状态,见证了全球卫星通信产业从起步到发展的历史进程。

基本信息
目录编号:
2514
目录名称:
INTELSAT 2-F1
国际标识:
1966-096A
轨道中心:
EARTH
卫星名称:
国际通讯卫星 2-F1星
卫星全名:
国际通讯卫星 2-F1星 (INTELSAT 2-F1)
卫星状态:
在轨 (已飞行21824 天)
发射日期:
1966-10-26 UTC
国别 :
(ITSO)
星等 :
--
轨道信息
数据来源 国际轨道数据
星历时间: 2026-07-21T09:06:03+0800
6天前
查看轨道信息
半长轴: 26581.205km
偏心率: 0.6390232
轨道倾角: 18.140°
近地点辐角 193.135°
升交点赤经 48.880°
平近点角 135.532°
近地点: 3217.061km
远地点: 37189.075km
周期: 718.823分钟
每日圈数: 2.003276
详细信息
卫星平台:
HS-303A
平衡模式:
自旋稳定
覆盖范围:
全球
运营商:
国际卫星通信公司
运营商所在国:
美国
制造商(研发单位):
休斯公司
制造商所在国:
美国
使用方式:
暂无
卫星简介
从1965年4月至1984年3月,国际通信卫星组织发射了5代、6种不同性能的卫星共计35颗,除6颗卫星因运载火箭和远地点发动机故障而发射失败外,其余29颗卫星均被送到了预定的静止轨道位置。1984年8月前后,国际通信卫星组织利用部署在大西洋、太平洋、印度洋上空的15颗国际通信卫星,为遍布世界各地170多个国家或地区提供电话、电传、电报、电视和数据传输等电信业务;该卫星已退役。
2D轨道图
3D轨道图
轨道高度分析图
轨道倾角分析图
轨道综合分析图
查看轨道综合分析图